Wind_Speed
23 21 27 34 32 30 28 27 29 29 30 29 29 26 22 21 18 15 13 13 14 15 13 14 14 12 11 13 19 22 25 21 23 27 22 20 14 17 19 20 21 16 16
28 23 19 23 31 29 29 28 27 26 26 25 26 26 23 20 20 19 17 20 22 18 17 17 16 16 14 16 24 27 28 30 26 26 25 23 20 16 28 29 26 24 21
28 25 22 20 24 30 30 28 29 28 27 26 28 29 26 27 25 21 22 24 18 19 21 25 24 20 19 20 20 22 25 29 36 33 29 30 29 29 32 30 29 29 30
33 30 26 24 21 27 33 33 29 31 32 28 32 33 29 29 25 27 26 27 28 27 26 27 27 25 26 28 26 26 26 28 37 37 32 35 38 34 33 36 35 33 34
35 34 32 32 24 22 24 34 36 33 34 33 32 33 34 35 36 35 32 30 31 33 35 37 35 32 31 31 33 32 32 31 30 30 38 39 41 41 35 36 36 35 34
39 37 35 38 32 29 29 28 33 38 40 39 40 38 39 34 29 31 33 35 35 38 42 39 36 33 32 36 36 32 31 32 32 32 33 32 41 41 37 34 34 36 37
40 40 42 44 42 38 35 34 34 41 40 43 44 45 45 44 43 40 38 37 37 38 35 31 31 33 32 33 32 30 30 33 37 38 38 38 37 35 41 41 37 38 39
47 44 44 46 46 46 43 40 39 41 45 50 51 47 46 44 42 41 40 38 38 36 35 33 28 25 24 18 27 25 30 36 40 46 46 47 44 43 41 41 45 47 41
41 41 42 47 49 52 51 48 44 42 42 41 43 46 48 47 44 42 40 38 35 34 31 22 13 10 14 19 23 21 31 36 33 44 52 55 53 51 48 48 48 49 52
42 41 40 41 46 47 43 42 45 42 41 40 41 44 42 41 40 39 38 37 35 26 16 11 8 8 12 15 23 31 39 33 40 39 50 59 60 60 55 54 55 51 51
44 44 41 38 36 36 39 38 39 39 39 44 44 45 44 45 46 41 37 37 31 23 22 12 2 7 14 22 26 33 41 46 45 43 42 51 59 62 65 60 59 58 56
45 44 42 41 37 35 35 36 35 36 36 37 40 41 43 43 42 35 30 30 33 22 20 13 7 11 13 19 30 43 50 54 50 47 49 47 47 56 59 65 65 64 61
48 46 48 43 41 40 34 34 33 33 35 30 31 35 36 35 34 33 40 34 25 17 11 10 13 9 17 26 30 39 44 57 44 43 47 47 43 42 51 53 64 70 68
52 51 46 48 46 40 38 33 30 33 34 30 30 33 33 34 36 40 34 32 21 19 18 12 17 21 14 26 31 36 46 45 62 52 41 41 43 41 39 45 49 59 73
49 57 54 50 50 44 34 25 36 29 39 30 27 29 35 39 37 36 39 32 23 21 19 18 16 16 27 23 36 38 47 50 55 56 46 36 33 35 36 37 41 45 55
36 46 59 55 55 57 53 51 57 45 38 38 31 32 41 43 44 43 42 37 30 25 22 22 21 19 27 27 39 33 46 58 50 54 55 43 31 27 28 30 33 38 41
44 39 49 62 61 61 63 62 55 53 47 45 40 41 38 47 46 40 33 29 30 26 26 25 25 29 43 35 45 47 53 44 44 54 51 57 45 30 26 23 25 28 32
51 46 42 55 68 67 66 67 64 61 57 58 51 48 48 40 45 49 48 43 34 33 34 38 36 42 45 42 47 47 43 39 45 52 51 50 49 45 36 31 27 26 24
56 53 50 48 63 72 71 69 69 67 65 63 58 57 53 46 40 52 54 46 45 47 47 48 47 53 54 48 47 46 48 58 57 55 46 56 46 53 44 37 35 34 34
62 61 59 55 54 70 74 73 69 68 66 68 63 61 59 47 42 45 59 59 58 49 53 54 52 56 52 51 55 55 61 53 51 43 48 54 52 47 47 44 40 36 35
61 62 61 57 56 64 75 75 72 68 66 66 68 64 65 58 52 45 47 48 58 56 56 58 55 52 50 53 59 52 65 53 46 50 53 59 58 46 41 39 41 43 39
58 59 59 59 60 62 73 77 75 70 65 61 66 68 65 64 59 52 47 51 52 53 52 50 54 50 45 53 60 59 50 47 53 54 52 59 64 53 40 38 37 39 39
61 61 62 65 63 66 69 76 76 74 67 65 64 64 65 68 55 58 53 53 51 53 52 55 53 46 51 56 56 60 51 53 57 57 57 61 67 55 50 48 44 44 40
57 55 55 56 55 63 67 73 73 71 68 63 55 62 62 61 52 56 50 47 52 57 55 50 49 43 49 54 50 53 48 50 55 60 61 67 68 59 59 54 53 52 48
49 49 52 48 47 54 60 68 68 64 63 60 54 47 49 49 50 44 38 43 47 49 49 50 45 46 50 53 54 67 70 56 59 60 66 67 70 67 63 60 56 57 55
40 43 44 38 43 48 59 62 60 57 51 47 42 35 38 38 39 40 42 46 47 52 53 48 44 43 49 58 58 59 62 66 66 67 69 73 71 68 65 64 63 63 64
Wind_Direction
213 224 215 214 220 229 230 233 231 237 238 237 239 241 243 245 238 233 250 257 248 263 272 291 293 277 267 239 259 252 245 260 271 273 272 264 268 281 276 278 282 275 260
221 223 220 224 226 225 227 229 231 234 237 237 233 233 233 242 236 234 233 239 250 259 276 287 297 290 280 259 251 249 257 264 269 280 269 259 245 276 298 272 265 270 265
223 228 226 231 232 225 218 226 228 233 236 235 231 225 227 237 240 238 240 240 252 264 274 276 277 284 286 288 291 271 255 249 253 256 262 266 259 246 248 261 263 267 266
227 220 231 227 228 229 225 225 229 233 234 234 233 235 238 243 243 245 255 256 254 266 272 274 277 276 281 279 282 283 276 265 256 253 252 256 261 257 257 262 261 262 261
229 231 234 228 222 227 233 230 228 229 234 238 238 241 246 249 246 248 255 257 266 275 280 280 273 276 275 276 280 276 277 272 269 266 262 259 257 260 263 267 261 261 261
222 226 228 233 235 232 235 234 234 238 241 240 241 244 249 248 249 247 254 262 268 272 275 278 271 271 274 279 276 274 273 270 269 272 270 273 258 257 259 262 266 261 260
233 234 232 234 238 235 237 239 238 234 237 242 242 246 246 249 255 256 257 260 264 270 276 273 272 277 274 273 270 270 271 270 268 266 262 265 270 266 256 256 257 259 263
232 236 239 240 243 247 248 243 244 243 243 242 244 245 245 249 252 256 258 265 268 267 273 271 272 272 272 310 289 285 284 280 276 268 264 263 258 256 255 254 256 254 254
234 234 238 241 246 248 248 246 246 246 249 247 247 247 248 250 250 252 256 256 258 265 267 259 244 267 296 303 310 327 319 318 285 274 269 263 261 260 257 256 254 252 252
234 233 235 239 243 243 239 241 240 241 242 242 239 237 235 236 240 242 242 247 254 244 194 196 262 300 338 334 335 324 316 317 316 299 278 270 262 258 256 252 253 252 252
231 232 234 235 241 242 233 234 237 235 236 240 244 246 246 247 244 243 245 240 225 188 196 215 272 325 295 298 327 332 325 318 317 303 291 273 264 257 254 253 250 249 250
227 225 228 232 236 235 232 228 230 234 239 237 236 241 244 247 241 234 228 190 189 207 212 220 278 286 326 340 335 339 339 330 319 308 299 284 272 260 259 250 249 250 251
235 228 228 228 231 229 229 230 235 235 236 239 247 255 250 238 230 207 181 190 193 196 223 245 275 320 321 323 328 329 337 339 330 314 306 296 284 277 258 256 252 248 249
238 235 233 228 226 228 226 230 242 224 229 254 251 250 238 212 191 190 195 202 209 216 235 255 270 301 321 328 336 331 341 343 351 339 313 304 295 285 275 259 255 254 251
242 237 234 230 225 221 222 239 255 260 256 257 244 230 221 202 205 204 205 217 220 228 247 265 290 300 308 315 328 331 334 334 348 350 335 316 303 288 282 273 263 259 255
249 243 238 230 224 219 219 210 223 220 239 235 227 222 225 214 214 217 222 238 253 255 256 268 285 298 301 318 325 322 329 329 332 345 339 333 326 313 291 283 275 266 262
250 247 238 233 228 223 225 220 219 226 226 224 223 232 238 226 234 237 240 238 256 252 265 267 277 290 302 309 315 314 319 329 342 341 348 344 333 321 314 309 291 278 268
249 248 247 235 230 228 228 228 225 227 228 225 227 231 230 237 234 235 239 247 255 259 268 274 283 291 298 307 310 310 325 348 348 341 348 347 345 332 318 306 302 296 293
247 248 248 245 231 228 228 228 227 231 233 233 232 231 229 230 245 229 240 246 253 257 264 272 277 287 296 302 301 304 310 313 325 329 336 339 334 332 322 312 298 293 291
250 250 249 249 241 229 228 229 228 229 231 236 236 236 232 230 244 243 239 239 243 254 261 267 273 281 290 291 293 300 306 319 323 329 330 338 336 324 323 319 316 302 290
251 250 249 246 238 231 226 227 228 230 231 233 235 237 237 236 238 253 255 253 246 253 260 262 273 282 287 282 290 296 308 313 319 324 330 330 331 326 315 319 319 315 306
250 247 246 243 235 232 225 225 225 228 230 232 234 236 242 239 245 245 255 257 253 255 258 266 272 275 275 282 288 293 305 310 313 319 325 325 326 318 310 310 309 308 305
249 250 248 246 237 230 228 223 224 227 230 231 233 237 241 244 249 253 256 254 249 255 259 272 268 270 276 285 292 292 299 308 306 309 322 321 322 314 306 304 308 296 290
252 249 249 242 234 227 223 220 221 224 228 228 234 238 242 245 253 249 258 255 254 256 258 258 264 276 283 288 290 294 296 301 306 311 314 318 316 310 299 301 296 293 292
241 243 242 239 229 222 214 214 218 221 224 228 234 237 242 247 252 255 250 252 253 249 250 256 268 279 284 288 290 297 298 299 305 310 312 311 310 302 298 299 295 293 289
249 239 234 224 218 211 205 210 215 217 222 220 230 237 242 242 245 247 246 242 243 245 253 263 272 279 285 291 297 294 298 303 303 307 307 307 301 297 295 298 297 291 291
Height
10916 10918 10918 10922 10926 10931 10935 10938 10940 10944 10946 10948 10951 10953 10955 10956 10957 10959 10960 10961 10961 10961 10960 10959 10958 10957 10958 10959 10960 10960 10959 10960 10961 10960 10962 10961 10960 10962 10961 10961 10959 10960 10960
10911 10912 10913 10916 10919 10923 10926 10931 10934 10938 10941 10943 10946 10949 10951 10953 10953 10955 10956 10956 10956 10957 10957 10956 10954 10952 10953 10954 10954 10954 10955 10955 10955 10955 10955 10956 10959 10962 10952 10958 10956 10955 10956
10905 10909 10910 10911 10913 10917 10921 10923 10928 10932 10934 10937 10940 10942 10944 10945 10948 10950 10952 10953 10954 10953 10952 10952 10951 10951 10950 10949 10948 10948 10948 10949 10948 10947 10947 10948 10951 10953 10952 10951 10949 10948 10948
10897 10900 10904 10907 10909 10911 10914 10918 10922 10926 10928 10931 10934 10937 10938 10940 10942 10945 10947 10946 10946 10947 10948 10948 10947 10947 10945 10942 10941 10941 10940 10940 10940 10939 10940 10940 10941 10942 10943 10943 10942 10941 10941
10892 10896 10899 10902 10904 10907 10909 10912 10914 10918 10922 10926 10927 10930 10932 10934 10936 10939 10939 10939 10940 10940 10940 10940 10941 10941 10940 10936 10934 10933 10932 10931 10930 10930 10930 10930 10930 10931 10933 10932 10933 10932 10933
10883 10887 10892 10896 10898 10901 10901 10907 10909 10913 10915 10917 10918 10920 10923 10925 10926 10928 10930 10931 10932 10933 10933 10933 10934 10933 10932 10929 10927 10926 10924 10924 10923 10922 10922 10921 10921 10921 10924 10923 10923 10923 10923
10873 10877 10882 10886 10889 10892 10895 10899 10903 10905 10907 10909 10910 10911 10914 10916 10918 10921 10922 10923 10925 10926 10926 10926 10926 10926 10924 10922 10919 10918 10916 10914 10913 10911 10910 10910 10911 10910 10911 10912 10914 10913 10913
10864 10868 10872 10876 10880 10883 10886 10889 10893 10896 10898 10899 10900 10902 10904 10907 10910 10913 10914 10916 10918 10919 10920 10920 10920 10919 10916 10914 10912 10910 10908 10908 10904 10902 10900 10898 10899 10897 10897 10899 10900 10902 10902
10854 10858 10862 10866 10869 10872 10875 10878 10882 10885 10887 10888 10889 10892 10895 10896 10898 10901 10904 10906 10908 10909 10910 10912 10913 10914 10912 10909 10905 10903 10902 10897 10892 10889 10886 10885 10885 10885 10886 10886 10884 10887 10886
10845 10850 10854 10858 10859 10861 10864 10868 10872 10875 10878 10880 10880 10881 10883 10883 10887 10887 10890 10894 10897 10900 10902 10904 10904 10905 10903 10900 10899 10896 10891 10885 10880 10875 10870 10868 10868 10869 10869 10872 10870 10871 10871
10836 10844 10848 10851 10853 10854 10854 10857 10861 10864 10866 10869 10872 10874 10874 10876 10877 10879 10882 10884 10888 10892 10893 10894 10894 10894 10895 10893 10892 10887 10881 10872 10863 10857 10851 10847 10845 10846 10849 10852 10855 10856 10855
10823 10829 10833 10839 10844 10845 10846 10848 10852 10856 10859 10861 10861 10864 10864 10865 10867 10869 10873 10878 10882 10887 10889 10889 10887 10886 10884 10883 10880 10875 10865 10855 10846 10838 10832 10826 10824 10824 10827 10831 10834 10836 10839
10813 10818 10823 10826 10833 10838 10842 10847 10851 10853 10855 10858 10858 10858 10857 10858 10861 10863 10867 10872 10876 10879 10881 10882 10881 10877 10874 10874 10871 10866 10858 10850 10834 10825 10816 10811 10808 10807 10807 10809 10813 10817 10819
10798 10805 10812 10817 10824 10829 10837 10844 10847 10846 10847 10849 10850 10850 10851 10852 10855 10859 10862 10866 10869 10871 10871 10872 10871 10868 10866 10863 10862 10856 10849 10841 10829 10819 10809 10801 10795 10793 10792 10793 10794 10798 10799
10783 10789 10794 10804 10813 10820 10833 10843 10850 10844 10842 10843 10843 10845 10847 10849 10851 10854 10858 10859 10862 10863 10864 10863 10862 10861 10859 10855 10853 10847 10842 10834 10826 10813 10805 10795 10786 10782 10779 10780 10781 10781 10781
10770 10774 10781 10789 10795 10802 10810 10816 10823 10827 10826 10831 10834 10839 10840 10842 10843 10845 10849 10851 10852 10852 10854 10853 10852 10852 10849 10847 10846 10839 10833 10827 10821 10813 10804 10792 10782 10776 10771 10768 10767 10768 10769
10755 10759 10763 10771 10779 10785 10788 10795 10803 10806 10812 10816 10821 10826 10828 10834 10835 10837 10840 10841 10842 10844 10845 10844 10841 10840 10839 10839 10836 10831 10825 10821 10814 10805 10800 10792 10780 10771 10766 10761 10758 10756 10755
10737 10742 10746 10751 10758 10767 10772 10779 10786 10789 10795 10802 10807 10810 10816 10821 10823 10826 10829 10832 10833 10834 10833 10831 10830 10828 10828 10828 10827 10822 10817 10811 10806 10800 10792 10787 10777 10767 10760 10754 10749 10746 10744
10720 10724 10728 10732 10738 10746 10752 10760 10769 10774 10780 10784 10790 10795 10803 10809 10811 10815 10818 10821 10822 10824 10823 10822 10818 10818 10817 10816 10814 10811 10807 10801 10798 10793 10784 10778 10770 10761 10752 10746 10741 10737 10733
10700 10704 10710 10715 10720 10727 10735 10741 10750 10757 10764 10771 10777 10784 10789 10794 10798 10802 10806 10809 10811 10814 10814 10809 10808 10809 10806 10805 10801 10798 10795 10792 10788 10780 10774 10769 10763 10755 10746 10739 10733 10727 10722
10677 10682 10689 10695 10702 10707 10714 10724 10733 10741 10749 10757 10763 10770 10774 10781 10785 10788 10792 10796 10799 10800 10799 10798 10798 10798 10795 10793 10789 10784 10783 10777 10775 10769 10765 10760 10754 10747 10739 10730 10724 10718 10713
10655 10660 10667 10673 10682 10687 10695 10706 10715 10725 10733 10742 10749 10754 10759 10766 10771 10777 10781 10783 10785 10787 10786 10787 10786 10784 10781 10779 10777 10773 10770 10765 10761 10755 10748 10745 10740 10735 10730 10722 10715 10709 10703
10634 10640 10645 10649 10659 10668 10676 10688 10699 10710 10719 10727 10736 10742 10747 10753 10759 10763 10768 10769 10772 10773 10772 10772 10771 10769 10768 10767 10764 10760 10755 10751 10747 10741 10733 10728 10724 10718 10716 10709 10702 10697 10693
10614 10619 10622 10627 10637 10647 10657 10671 10684 10695 10705 10716 10725 10730 10736 10743 10746 10751 10755 10756 10757 10758 10758 10757 10756 10756 10756 10754 10751 10748 10740 10735 10732 10724 10717 10712 10707 10703 10698 10694 10688 10682 10677
10598 10603 10606 10613 10623 10633 10647 10659 10672 10685 10696 10706 10715 10721 10726 10731 10735 10737 10741 10742 10743 10744 10743 10743 10744 10742 10742 10741 10736 10730 10725 10719 10714 10707 10701 10694 10689 10684 10680 10676 10671 10666 10661
10583 10587 10594 10605 10614 10624 10639 10652 10665 10678 10688 10698 10707 10712 10716 10719 10723 10726 10727 10729 10730 10730 10729 10729 10729 10729 10727 10724 10720 10715 10708 10701 10696 10689 10684 10678 10671 10667 10663 10657 10651 10646 10641